Regional Weather Roundup
Issued by NWS Newport/Morehead, NC

Current Version | Previous Version | Graphics & Text | Print | Product List | Glossary On
Versions: 1 2 3 4 5 6 7 8 9 10 11 12 13 14 15 16 17 18 19 20 21 22 23 24 25 26 27 28 29 30 31 32 33 34 35 36 37 38 39 40 41 42 43 44 45 46 47 48 49 50
000 ASUS42 KMHX 190625 RWRMHX WEATHER ROUNDUP FOR EASTERN NORTH CAROLINA NATIONAL WEATHER SERVICE NEWPORT/MOREHEAD CITY NC 100 AM EST THU JAN 19 2017 NOTE: "FAIR" INDICATES FEW OR NO CLOUDS BELOW 12,000 FEET WITH NO SIGNIFICANT WEATHER AND/OR OBSTRUCTIONS TO VISIBILITY NCZ015>017-031-032-045>047-102-103-190700- NORTH COAST CITY SKY/WX TMP DP RH WIND PRES REMARKS EDENTON CLOUDY 42 40 94 CALM 30.06S ELIZABETH CITY CLOUDY 43 40 89 CALM 30.05S KITTY HAWK NOT AVBL MANTEO CLEAR 45 45 100 N6 30.04S $$ NCZ045>047-081-094-103-104-190700- CENTRAL COAST CITY SKY/WX TMP DP RH WIND PRES REMARKS FRISCO PTCLDY 49 44 83 VRB5 30.03S $$ NCZ095-097-098-100-101-190700- SOUTHERN COAST CITY SKY/WX TMP DP RH WIND PRES REMARKS BEAUFORT CLEAR 47 43 86 NE3 30.04F CEDAR ISLAND NOT AVBL JACKSONVILLE NOT AVBL PINEY ISLAND PTCLDY N/A N/A N/A N6 30.03F WILMINGTON CLEAR 49 45 86 CALM 30.05S $$ NCZ011>013-027>030-043-044-078>080-089-090>093-098-190700- COASTAL PLAIN CITY SKY/WX TMP DP RH WIND PRES REMARKS AHOSKIE N/A 38 37 98 CALM 30.07S CLINTON CLEAR 44 40 84 NE5 30.06S ELIZABETHTOWN CLEAR 44 39 82 CALM 30.05F GOLDSBORO CLOUDY 43 41 92 CALM 30.04S GREENVILLE CLEAR 41 41 100 CALM 30.07S FOG HAVELOCK CLEAR 43 41 93 CALM 30.05F KENANSVILLE CLOUDY 37 37 100 CALM 30.06S KINSTON CLOUDY 39 38 97 CALM 30.06F NEW BERN CLEAR 43 42 97 CALM 30.06S RICHLANDS CLOUDY 39 38 96 CALM 30.06R ROCKY MOUNT CLOUDY 42 38 85 CALM 30.06S WASHINGTON PTCLDY 40 39 99 CALM N/A WHITEVILLE CLEAR 45 41 86 CALM 30.04F $$ AMZ130-135-150-152-154-156-158-170-250-252-270-ANZ085-086-088-633-658-670-190700- MARINE OBSERVATIONS STATION/POSITION TIME TEMP WIND PRES WAVE SWELL AIR SEA DIR/SP/G HT/PER HT/PER (UTC) (F) (DEG/KT/KT) (MB) (FT/S) (FT/S) CHESAPEAKE LIGHT NOT AVBL 64 E VA BEACH 0550 51 57 360/ 19/ 23 1015.6 6/ 7 DUCK 0554 46 45 310/ 6/ 7 1016.7 2 E DUCK 0600 46 N/A 2/ 5 OREGON INLET 0548 45 51 320/ 4/ 5 1016.9 13E OREGON INLT NOT AVBL HATTERAS CG 0554 49 55 330/ 9/ 11 1016.5 DIAMOND BUOY 0550 54 76 10/ 16/ 19 1016.3 4/ 6 3/ 7 CAPE LOOKOUT 0600 52 20/ 10/ 13 1016.7 BEAUFORT LAB 0554 48 51 10/ 3/ 4 1016.3 30 SE NEW RVR IN 0508 57 62 60/ 16/ 21 1016.8 30 SE NEW RVR IN 0543 62 N/A 5/ 6 27 SE WRIGHTSVLE 0608 60 68 80/ 12/ 17 1016.5 5 SE WRIGHTSVLE 0608 55 80/ 4/ 8 1017.1 225 S CAPE HAT 0550 68 72 10/ 21/ 25 1014.4 8/ 8 3/13 41 SE CHARLESTON 0550 69 71 300/ 14/ 16 1015.4 3/ 5 2/10 $$

USA.gov is the U.S. government's official web portal to all federal, state and local government web resources and services.